Location: Chomutov
(50.4500°N, 13.4333°E)
Time: 18:57:58
(UTC+02:00)

FO-29 - Pass Details

Date: 26 September 2021
Orbit: 800 x 1321 km, 98.6° (Epoch: 23 October)

Event Time Altitude Azimuth Distance (km) Brightness Sun altitude
Exits shadow 22:00:20 37° 188° (S) 1,902 10.7 -28.5°
Maximum altitude 22:03:42 68° 259° (WSW) 1,403 10.3 -28.9°
Drops below altitude 10° 22:11:35 10° 342° (NNW) 3,358 13.0 -29.9°
Sets 22:14:21 0° 345° (NNW) 4,317 13.6 -30.2°
